Regional Weather Roundup
Issued by NWS Newport/Morehead, NC

Current Version | Previous Version | Graphics & Text | Print | Product List | Glossary Off
Versions: 1 2 3 4 5 6 7 8 9 10 11 12 13 14 15 16 17 18 19 20 21 22 23 24 25 26 27 28 29 30 31 32 33 34 35 36 37 38 39 40 41 42 43 44 45 46 47 48 49 50

000
ASUS42 KMHX 192222
RWRMHX
WEATHER ROUNDUP FOR EASTERN NORTH CAROLINA
NATIONAL WEATHER SERVICE NEWPORT/MOREHEAD CITY NC
600 PM EDT SAT APR 19 2014

NOTE: "FAIR" INDICATES FEW OR NO CLOUDS BELOW 12,000 FEET
WITH NO SIGNIFICANT WEATHER AND/OR OBSTRUCTIONS TO VISIBILITY

NCZ015>017-031-032-045>047-102-103-192300-
NORTH COAST

CITY           SKY/WX    TMP DP  RH WIND       PRES   REMARKS
EDENTON        DRIZZLE   49  43  79 NE12      30.18S
ELIZABETH CITY CLOUDY    50  43  77 N13       30.19R
KITTY HAWK     CLOUDY    49  46  91 N12G20    30.15R
MANTEO         CLOUDY    49  46  89 NE16G22   30.16R

$$

NCZ045>047-081-094-103-104-192300-
CENTRAL COAST

CITY           SKY/WX    TMP DP  RH WIND       PRES   REMARKS
FRISCO         LGT RAIN  52  52 100 NE13G26   30.10R FOG
SWANQUARTER      N/A     50 N/A N/A N21       30.09R

$$

NCZ095-097-098-100-101-192300-
SOUTHERN COAST

CITY           SKY/WX    TMP DP  RH WIND       PRES   REMARKS
BEAUFORT       CLOUDY    56  53  90 NE20G30   30.05R
CEDAR ISLAND     N/A     55 N/A N/A N22G38    30.12S
JACKSONVILLE   RAIN      52  52 100 N14       30.09R
NEWPORT          N/A     54  52  94 N9          N/A
PINEY ISLAND   CLOUDY    57  53  86 N26G35    30.07F
WILMINGTON     LGT RAIN  55  52  89 NE20G29   30.05R FOG


$$

NCZ011>013-027>030-043-044-078>080-089-090>093-098-192300-
COASTAL PLAIN

CITY           SKY/WX    TMP DP  RH WIND       PRES   REMARKS
AHOSKIE        CLOUDY    51  41  70 NE12      30.21S
CLINTON        DRIZZLE   50  49  98 NE9G22    30.13R
ELIZABETHTOWN  CLOUDY    52  50  93 NE6       30.10R
GOLDSBORO      LGT RAIN  50  48  93 N8        30.15R
GREENVILLE     CLOUDY    52  43  71 NE12G20   30.17F
HAVELOCK       CLOUDY    54  49  83 NE22G28   30.08F
KENANSVILLE    LGT RAIN  47  46  95 NE12G26   30.13S
KINSTON        CLOUDY    50  46  87 N10       30.15R
NEW BERN       CLOUDY    52  48  86 NE14      30.11S
RICHLANDS      CLOUDY    52  52 100 N17G23    30.11S
ROANOKE RAPIDS NOT AVBL
ROCKY MOUNT    CLOUDY    52  43  71 NE18G25   30.18R
WASHINGTON     CLOUDY    53  48  85 N9        30.15F
WHITEVILLE     CLOUDY    55  51  86 NE9G16    30.06S

$$

AMZ130-135-150-152-154-156-158-170-250-252-270-ANZ085-086-088-633-658-670-192300-
MARINE OBSERVATIONS

STATION/POSITION TIME  TEMP    WIND        PRES    WAVE   SWELL
                       AIR SEA DIR/SP/G            HT/PER HT/PER
                 (UTC) (F)     (DEG/KT/KT) (MB)    (FT/S) (FT/S)
CHESAPEAKE LIGHT 2200   46      30/ 14/ 15 1023.3
BUOY 44014       2200   50 48   20/ 16/ 17 1021.0    6/11   5/11
DUCK             2200   48 49   10/ 15/ 19 1020.8
2E DUCK          2200      47                N/A     6/ 5   2/11
OREGON INLET     2200   49 52   10/  9/ 15 1020.5
BUOY 44095       2200      48                N/A     8/ 8   2/11
HATTERAS CG      2200   53 56   20/ 14/ 25 1019.1
DIAMOND BUOY     NOT AVBL
CAPE LOOKOUT     2200   56      20/ 26/ 31 1016.7
BEAUFORT LAB     2200   56 58   30/ 15/ 24 1016.8
30 SE NEW RIVER  2200   59 67   40/ 31/ 37 1015.2   10/ 8   3/ 9
5 SE WRIGHTSVILL 2200   56 59   30/ 23/ 27 1016.4
FRYING PAN BUOY  2200   63 65   60/ 29/ 35 1012.9   11/ 7
BUOY 41001       NOT AVBL
BUOY 41002       NOT AVBL
BUOY 41004       NOT AVBL

$$



USA.gov is the U.S. government's official web portal to all federal, state and local government web resources and services.